CAPE
18 8 10 9 2 8 0 0 0 0 0 0 1 17 1 0 3 0 0 0 0 0 0 0 0 0 0 0 0 0 0 0 3 3 0 0 0 0 0 0 0 0 0 0
12 16 7 7 2 3 9 0 0 0 0 0 6 1 1 0 0 0 0 0 0 0 0 0 0 0 0 0 0 0 0 0 3 5 0 0 0 0 0 0 0 0 0 0
15 12 4 4 2 0 0 0 0 0 0 0 0 0 0 0 0 0 0 0 0 0 0 0 0 0 0 0 0 0 0 0 0 0 0 0 0 0 0 0 0 0 0 0
12 9 6 3 0 0 0 3 1 0 1 0 0 0 0 0 0 0 0 0 0 0 0 0 0 0 0 0 0 0 0 0 0 0 0 0 0 0 0 0 0 0 0 0
24 5 6 4 0 0 0 1 2 1 1 0 0 0 0 0 0 0 0 0 0 0 0 0 0 0 0 0 0 0 0 2 0 0 0 0 0 0 0 0 0 0 0 0
27 19 8 8 1 0 3 0 0 9 0 0 0 0 0 0 0 0 0 0 2 0 0 0 0 0 0 0 0 0 0 0 0 0 0 0 0 0 0 0 0 0 0 0
37 48 21 22 7 0 0 2 8 1 0 0 0 0 0 0 0 0 0 0 1 0 0 0 0 0 0 0 0 0 1 3 0 0 0 0 0 0 0 0 0 0 0 0
29 38 17 26 13 0 0 0 2 7 0 0 0 0 1 0 0 0 0 0 0 0 0 0 0 4 2 0 0 0 1 1 0 2 0 0 0 0 0 0 0 0 0 0
28 17 30 31 19 0 0 0 0 0 0 0 0 0 0 1 0 0 0 0 0 0 2 9 7 0 0 7 9 0 0 6 5 4 1 0 0 0 0 0 0 0 0 0
20 14 31 36 35 15 0 0 0 0 0 0 0 0 0 0 3 2 0 0 1 0 16 25 20 4 0 1 1 15 21 19 18 13 7 0 0 0 0 1 0 0 0 0
30 34 23 26 33 9 1 2 0 0 0 0 0 0 0 0 0 3 0 7 6 0 33 25 7 8 0 0 0 2 5 10 20 25 7 0 0 0 0 0 0 0 0 0
40 21 11 7 30 22 8 6 0 0 0 0 0 0 0 0 0 0 0 3 1 4 36 6 7 2 0 4 6 0 3 0 0 0 0 0 0 0 0 0 0 0 0 0
35 25 21 24 26 36 43 11 0 0 21 2 0 0 0 0 0 0 0 0 0 1 2 0 0 19 0 4 2 0 0 0 0 0 0 0 0 0 0 0 0 0 0 0
31 22 11 13 30 54 37 18 16 29 29 8 0 0 0 0 0 0 0 0 0 0 4 6 35 24 0 0 0 0 0 0 0 0 0 0 0 0 0 0 0 0 0 0
25 10 14 25 43 16 21 17 3 15 7 2 1 0 0 0 0 0 0 0 0 3 2 10 23 9 0 0 0 0 0 0 0 0 0 0 0 0 0 0 0 0 0 0
17 18 25 59 0 20 13 3 0 0 16 17 5 0 0 0 0 0 0 0 2 17 5 10 8 0 12 14 0 0 0 0 0 0 0 0 0 0 0 0 0 0 0 0
21 18 34 11 5 2 3 0 0 0 0 18 3 0 0 0 0 0 0 2 4 13 23 33 31 20 0 3 0 0 0 0 0 0 0 0 0 0 0 0 0 0 0 0
23 26 6 2 9 0 3 0 1 0 13 3 3 1 0 1 7 1 0 2 7 54 35 58 26 6 3 18 0 0 0 0 0 0 0 0 0 0 0 0 0 0 0 0
2 0 0 22 0 0 0 0 24 8 16 2 4 4 0 6 12 13 23 35 14 27 81 64 27 2 44 0 0 0 0 0 0 0 0 0 0 0 0 0 0 0 0 0
0 0 0 6 0 0 0 5 19 12 20 25 12 13 4 11 14 18 27 12 20 5 3 10 18 8 0 0 0 0 0 0 0 0 0 0 0 0 0 0 0 0 0 0
0 0 0 0 0 1 7 7 18 6 6 7 4 5 4 7 8 10 8 1 1 14 6 9 1 2 0 0 0 0 0 0 0 0 0 0 0 0 1 1 0 0 0 0
5 3 0 2 2 2 3 1 3 4 2 19 19 26 13 6 5 4 4 0 3 3 3 6 5 0 0 0 0 0 0 0 0 0 0 0 0 0 1 0 0 0 0 0
0 1 0 0 1 0 1 0 1 4 6 5 8 6 13 6 1 1 1 1 2 0 1 0 0 0 0 0 0 0 0 0 0 0 0 0 0 0 1 1 0 0 0 0
0 0 0 0 0 0 0 0 0 0 1 2 1 6 9 6 2 2 1 6 1 3 0 0 0 0 0 0 0 0 0 0 0 0 0 0 0 0 0 1 1 0 0 0
0 0 0 0 0 0 0 0 2 0 1 4 5 4 10 1 1 4 2 3 2 2 0 0 0 0 0 0 0 0 0 0 0 0 0 0 0 0 0 0 0 0 0 0
0 0 0 0 0 0 0 0 0 0 1 5 4 5 4 5 2 6 1 0 0 0 0 0 0 0 0 0 0 0 0 0 0 0 0 0 0 0 0 0 0 0 0 0
0 0 0 0 0 0 0 0 0 0 0 2 3 3 12 3 16 0 0 0 0 0 0 0 0 0 0 0 0 0 0 0 0 0 0 0 0 0 0 0 0 0 0 0
CIN
0 0 0 0 0 0 0 0 0 0 0 0 0 -2 0 -12 -24 0 0 0 0 0 0 0 0 0 0 0 0 0 0 0 0 0 0 0 0 0 0 0 0 0 0 0
0 0 0 0 0 0 0 0 0 0 0 0 -6 -29 -27 0 0 0 0 0 0 0 0 0 0 0 0 0 0 0 0 0 0 0 0 0 0 0 0 0 0 0 0 0
0 0 0 0 0 0 0 0 0 0 0 0 0 0 0 0 0 0 0 0 0 0 0 0 0 0 0 0 0 0 0 0 0 0 0 0 0 0 0 0 0 0 0 0
0 0 0 0 0 0 0 0 0 0 0 0 0 0 0 0 0 0 0 0 0 0 0 0 0 0 0 0 0 0 0 0 0 0 0 0 0 0 0 0 0 0 0 0
0 0 0 0 0 0 0 0 0 -1 0 0 0 0 0 0 0 0 0 0 0 0 0 0 0 0 0 0 0 0 0 0 0 0 0 0 0 0 0 0 0 0 0 0
0 0 0 0 0 0 0 -1 -1 0 0 0 0 0 0 0 0 0 0 -9 -10 0 0 0 0 0 0 0 0 0 0 0 0 0 0 0 0 0 0 0 0 0 0 0
0 -1 -1 0 -1 0 0 0 -4 0 0 0 0 0 0 0 0 0 0 0 -3 0 0 0 0 0 0 0 0 0 -6 -21 0 0 0 0 0 0 0 0 0 0 0 0
0 -2 -5 0 0 0 0 0 0 0 0 0 0 0 0 0 0 0 0 0 0 0 0 0 0 0 -2 0 -36 0 -16 -6 -1 0 0 0 0 0 0 0 0 0 0 0
0 0 0 -4 0 0 0 0 0 0 0 0 0 0 0 0 0 0 0 0 0 0 -21 -4 0 0 0 0 -3 -3 -2 -9 0 0 0 0 0 0 0 0 0 0 0 0
-1 0 0 0 0 -3 0 0 0 0 0 0 0 0 0 0 0 0 0 0 0 0 -2 0 0 0 0 0 0 0 0 -2 0 0 0 0 0 0 0 0 0 0 0 0
-1 0 0 0 0 -1 -5 -1 0 0 0 0 0 0 0 0 0 0 0 0 0 0 0 -3 -10 0 -1 0 0 0 0 0 0 0 0 0 0 0 0 0 0 0 0 0
-1 -1 -1 0 0 -1 -5 0 0 0 0 0 0 0 0 0 0 0 0 0 0 0 -1 -21 -33 -3 0 0 0 0 0 0 0 0 0 0 0 0 0 0 0 0 0 0
0 -2 0 0 0 0 0 -1 0 -1 0 0 0 0 0 0 0 0 0 0 -1 0 0 0 -31 -2 0 0 0 0 0 0 0 0 0 0 0 0 0 0 0 0 0 0
0 0 0 -1 0 0 -1 -6 -11 -1 0 0 0 0 0 0 0 0 0 0 0 0 0 0 -1 0 0 0 0 0 0 0 0 0 0 0 0 0 0 0 0 0 0 0
-3 -7 -1 0 0 -1 -1 -8 -13 -12 -3 0 0 0 0 0 0 0 0 0 0 0 0 0 -2 -6 -5 0 0 0 0 0 0 0 0 0 0 0 0 0 0 0 0 0
0 -1 0 0 0 0 -2 0 0 0 -2 0 0 0 0 0 0 0 0 0 0 0 0 0 0 0 -30 -15 -2 0 0 0 0 0 0 0 0 0 0 0 0 0 0 0
-3 -2 0 -1 0 -3 0 0 0 0 -9 0 0 0 0 0 0 0 0 0 0 0 0 0 0 -2 -1 -1 0 0 0 0 0 0 0 0 0 0 0 0 0 0 0 0
-2 0 0 -1 -1 0 0 0 -1 -2 0 0 0 0 0 0 0 0 0 0 0 0 0 0 0 0 -13 -1 0 0 0 0 0 0 0 0 0 0 0 0 0 0 0 0
0 0 0 0 0 0 0 0 -3 -2 0 0 0 0 0 0 0 0 0 0 0 -1 0 0 0 0 0 0 0 0 0 0 0 0 0 0 0 0 0 0 0 0 0 0
0 0 0 0 0 0 0 -5 -1 -1 0 0 0 0 0 0 0 0 -1 0 -1 0 0 0 0 0 0 0 0 0 0 0 0 0 0 0 0 0 0 0 0 0 0 0
0 0 0 0 0 -3 0 0 0 0 0 0 0 0 0 0 0 0 0 0 0 0 0 0 0 0 0 0 0 0 0 0 0 0 0 0 0 0 0 0 0 0 0 0
-2 -1 0 0 0 0 0 0 0 0 0 0 0 0 0 0 0 0 0 0 0 0 -1 0 -1 0 0 0 0 0 0 0 0 0 0 0 0 0 0 0 0 0 0 0
0 0 0 0 0 0 0 0 0 0 0 0 0 0 0 0 0 0 0 0 -1 0 0 0 0 0 0 0 0 0 0 0 0 0 0 0 0 0 0 0 0 0 0 0
0 0 0 0 0 0 0 0 0 0 0 0 0 0 0 0 0 0 0 0 0 0 0 0 0 0 0 0 0 0 0 0 0 0 0 0 0 0 0 0 0 0 0 0
0 0 0 0 0 0 0 0 0 0 0 0 0 0 0 0 0 0 0 -1 -1 -1 0 0 0 0 0 0 0 0 0 0 0 0 0 0 0 0 0 0 0 0 0 0
0 0 0 0 0 0 0 0 0 0 0 0 0 0 0 0 0 0 0 0 0 0 0 0 0 0 0 0 0 0 0 0 0 0 0 0 0 0 0 0 0 0 0 0
0 0 0 0 0 0 0 0 0 0 0 0 0 0 0 0 0 0 0 0 0 0 0 0 0 0 0 0 0 0 0 0 0 0 0 0 0 0 0 0 0 0 0 0
Wind_Speed
22 24 25 27 27 27 5 2 0 2 4 2 2 2 2 2 2 1 2 2 3 3 3 4 2 3 1 3 3 3 2 5 5 2 2 2 2 3 5 4 5 0 3 3
19 22 25 26 27 23 5 3 3 1 3 3 3 2 2 1 5 4 2 2 1 1 3 2 2 3 2 4 3 4 5 4 5 2 3 3 6 6 3 4 1 5 3 5
20 22 23 26 27 24 2 2 0 3 3 3 2 1 1 1 1 1 1 2 2 3 3 3 4 3 2 1 1 3 3 3 1 2 3 4 5 10 10 5 4 5 6 1
19 21 22 25 27 23 2 3 2 2 1 3 2 1 2 2 2 1 1 2 2 3 3 3 4 3 4 3 5 2 1 3 1 1 2 3 3 7 13 10 6 6 2 6
16 19 20 23 26 19 3 3 2 2 1 2 1 1 1 2 1 2 1 2 4 2 2 1 7 7 5 3 5 3 1 3 2 1 2 6 7 11 12 15 16 14 15 17
14 17 18 20 21 15 4 3 2 3 2 0 2 2 1 2 4 2 2 0 4 3 1 1 1 2 4 5 8 5 5 6 2 1 1 5 8 16 18 11 10 14 12 10
14 14 17 17 16 10 2 3 3 2 1 2 1 2 3 4 5 3 2 2 2 4 6 8 8 9 7 5 4 4 7 4 1 0 3 5 3 3 4 17 12 16 11 12
11 11 12 17 13 10 3 2 3 3 3 3 1 3 3 8 4 2 2 2 3 2 1 2 4 3 3 3 2 3 2 4 2 2 3 7 3 3 6 8 3 16 16 15
13 12 11 12 15 4 1 2 2 2 3 2 2 3 3 3 4 2 0 2 1 1 0 2 4 5 4 5 4 2 4 4 4 3 3 4 3 3 4 4 4 4 11 11
11 14 15 12 11 7 1 1 1 2 3 2 3 3 1 2 1 3 3 3 2 1 3 4 4 4 1 6 7 6 5 3 9 7 5 6 5 3 4 5 5 6 6 7
8 11 12 14 11 11 1 2 2 2 3 6 4 2 4 3 3 3 4 2 3 1 5 3 4 4 5 4 4 6 9 7 5 6 5 9 6 5 5 4 2 1 3 4
8 7 9 12 10 8 4 2 1 1 3 5 5 8 10 10 7 1 2 4 3 2 4 2 2 4 4 5 4 5 8 7 4 9 5 1 6 1 2 2 5 3 2 2
9 5 8 11 11 8 8 3 2 1 3 6 5 5 6 10 16 11 5 3 4 2 4 2 1 6 4 6 6 7 8 7 4 5 8 11 6 7 3 2 2 1 3 4
9 6 11 12 13 18 4 2 3 1 2 5 4 3 5 3 8 10 16 12 1 3 3 3 4 4 5 3 1 6 3 10 9 7 6 3 6 7 4 1 4 6 5 6
8 3 10 12 18 14 6 1 2 2 3 4 7 12 5 8 8 12 12 13 12 3 3 4 5 3 4 1 2 5 7 7 7 4 4 6 3 6 1 4 5 6 8 7
8 8 11 15 13 8 0 1 1 2 3 2 5 4 3 3 5 9 9 7 5 3 4 4 7 3 5 6 5 5 10 6 4 3 4 3 3 4 3 2 6 8 7 6
6 10 13 14 11 2 1 2 1 5 2 3 5 6 2 1 3 2 3 5 3 4 3 4 6 5 6 2 4 3 8 8 6 3 2 4 2 1 3 9 11 9 7 5
10 11 10 10 4 2 1 0 5 4 1 2 3 6 4 6 3 3 5 4 6 7 4 3 5 2 2 5 5 3 6 6 4 4 1 3 5 7 7 6 6 7 7 5
11 11 5 2 2 0 1 2 2 2 2 1 3 3 4 4 3 2 6 6 5 5 5 6 4 4 6 5 6 9 7 3 4 1 5 6 4 6 7 7 8 7 6 5
8 2 1 0 1 5 6 1 2 2 2 2 4 2 4 3 3 5 3 4 3 3 5 4 5 4 2 3 4 6 5 4 3 1 2 2 4 5 8 8 8 9 9 6
3 3 1 2 5 1 2 2 2 2 3 4 4 4 5 4 4 3 5 3 3 3 3 3 4 4 3 4 5 4 4 2 1 3 5 6 8 9 9 10 10 9 9 9
1 0 1 2 2 1 2 2 2 3 3 2 4 4 4 4 5 2 1 1 1 1 2 1 3 2 4 4 3 3 3 1 2 4 4 4 5 5 7 8 9 7 6 3
1 1 1 1 1 2 4 5 2 4 4 4 4 6 4 4 2 1 2 2 1 2 1 3 1 3 3 3 4 4 3 2 0 1 2 3 4 5 5 6 6 6 4 2
1 2 3 1 1 3 3 3 3 2 4 7 7 5 4 3 3 2 1 1 1 1 3 3 2 6 6 4 3 4 3 2 3 3 4 5 6 5 5 5 5 5 4 2
1 2 1 4 2 3 3 1 3 3 4 4 5 5 4 3 4 1 1 2 3 3 3 1 3 7 6 5 4 4 2 2 3 4 5 5 5 5 5 6 5 4 3 2
0 2 1 3 1 2 1 2 3 1 4 4 2 4 4 4 2 2 4 2 4 3 2 1 7 8 6 5 5 4 3 2 3 3 4 4 5 6 6 5 7 7 6 4
2 4 3 2 3 5 2 2 2 1 2 3 3 4 2 5 3 3 2 3 2 1 1 3 6 8 8 6 4 3 2 2 3 2 3 4 5 5 6 8 9 7 5 5
Wind_Direction
352 352 352 355 355 348 23 319 68 116 178 76 67 43 317 302 334 350 87 86 98 138 143 139 135 125 95 163 147 98 56 102 136 136 65 325 261 222 216 248 178 5 321 115
354 355 351 354 356 360 322 343 312 276 270 81 50 11 26 349 11 22 28 96 351 157 127 127 118 134 23 165 157 154 166 119 118 148 193 175 221 189 182 99 68 203 233 119
355 355 354 354 355 354 333 303 259 357 51 28 40 5 26 322 116 323 1 108 137 143 119 54 134 124 48 189 3 89 101 116 307 189 85 120 193 196 192 193 202 160 238 338
352 356 356 356 356 354 288 5 61 356 86 89 51 249 332 318 344 352 323 141 249 166 142 130 137 141 118 135 159 99 148 111 121 165 130 175 216 200 198 206 203 213 111 236
352 358 359 360 1 356 56 14 352 332 84 307 239 103 117 332 342 290 171 200 150 191 178 229 176 163 183 172 169 165 96 119 129 210 193 230 249 232 215 221 232 246 259 278
354 360 0 4 10 7 29 358 299 304 10 327 234 95 359 17 331 159 287 316 148 160 166 171 351 122 160 164 163 156 156 147 162 192 151 286 257 230 212 208 209 215 222 231
353 1 357 359 16 29 22 360 303 303 274 297 37 350 335 315 343 302 317 300 284 90 101 119 105 91 96 122 102 173 154 124 99 265 251 231 62 133 216 215 216 216 243 254
1 7 4 357 13 26 39 348 328 336 281 333 268 346 331 304 287 249 283 37 15 172 202 127 134 142 162 97 75 179 211 145 122 272 243 306 229 192 174 186 191 216 232 255
357 360 357 342 348 32 47 7 313 327 311 159 325 294 310 323 332 274 47 51 42 131 184 193 216 197 185 172 154 83 150 248 217 182 267 259 53 142 197 224 127 158 211 247
1 355 344 344 323 332 36 306 344 325 299 276 260 224 297 290 246 282 296 348 192 271 185 211 220 223 253 184 191 172 172 171 212 216 259 277 248 142 165 206 101 151 200 242
347 354 336 346 359 355 206 315 225 327 293 274 244 257 234 265 243 232 34 237 184 185 215 213 181 231 203 194 198 180 180 185 191 203 217 251 147 135 222 73 111 236 258 231
341 338 348 313 329 313 303 275 162 179 246 282 224 236 261 254 256 345 297 319 267 275 231 239 160 190 186 187 211 192 206 209 187 208 216 360 194 86 134 267 275 267 245 218
330 350 333 321 301 307 277 253 155 126 274 273 257 255 281 232 234 226 236 243 327 90 359 294 238 239 184 185 214 179 224 204 239 184 219 229 224 221 259 157 178 234 258 281
340 351 341 326 319 315 324 202 182 197 317 287 285 221 241 247 208 209 225 253 163 31 350 257 222 230 204 216 45 212 164 163 210 243 249 220 239 230 157 291 300 286 274 253
4 11 322 316 306 322 312 242 202 203 189 285 292 308 305 254 232 211 212 224 249 292 313 275 213 162 175 162 226 224 185 179 197 225 204 226 132 154 183 288 299 301 295 277
345 323 319 314 328 333 353 267 147 177 183 296 287 328 249 226 200 215 205 194 194 173 184 253 279 298 212 193 217 231 199 190 215 202 170 223 285 285 205 262 309 303 284 271
322 318 320 331 321 138 213 324 65 163 108 246 284 305 286 166 138 143 185 199 218 211 201 248 285 217 181 241 224 222 197 187 158 126 167 244 219 18 306 303 297 284 268 262
305 306 328 325 84 93 236 311 176 133 222 238 294 269 280 171 150 168 161 158 191 203 218 224 246 227 181 236 217 182 155 143 170 174 41 335 311 298 292 295 285 267 251 240
321 324 319 128 74 186 256 270 265 167 277 294 251 293 306 162 193 208 188 193 175 201 213 213 170 248 205 216 176 181 174 168 128 165 305 305 281 308 300 302 296 265 263 245
341 13 25 98 44 322 311 178 214 203 190 223 260 267 262 274 214 196 205 204 186 173 222 205 193 252 75 80 72 115 123 113 122 238 253 288 275 292 309 299 291 279 266 258
22 10 12 315 315 318 230 251 241 173 235 204 243 244 272 219 237 210 200 190 205 239 149 218 200 234 120 129 104 80 84 83 224 254 275 273 277 295 303 302 295 280 263 244
13 343 303 297 311 263 286 281 272 241 303 295 312 317 268 278 242 280 217 242 222 327 320 255 253 89 111 135 114 88 65 80 239 227 258 278 288 301 292 300 303 301 274 248
80 118 46 355 15 336 12 343 341 317 349 354 322 318 287 285 288 285 332 310 16 312 302 250 303 108 131 127 122 93 53 55 103 357 311 330 337 354 334 333 341 345 27 58
29 61 23 32 139 220 218 224 259 302 286 311 315 282 278 296 281 295 259 91 315 270 253 249 165 172 149 131 114 128 76 63 64 38 14 10 18 342 338 350 339 351 6 340
256 109 227 210 283 257 256 286 288 242 262 287 290 274 251 267 277 255 279 209 238 223 236 242 166 153 150 151 148 138 115 41 39 27 17 13 5 355 353 358 350 356 359 17
36 222 212 216 292 270 265 240 259 255 306 284 228 271 278 253 272 224 222 218 236 259 238 138 147 153 156 159 165 161 134 71 35 22 10 2 5 2 348 353 9 359 357 354
289 260 254 237 277 241 233 226 246 15 316 294 304 264 282 305 251 255 227 223 266 308 253 170 163 165 163 151 148 142 111 72 43 28 18 9 360 1 15 10 356 345 345 340